Location: Vihti�l�
(61.3833°N, 23.0667°E)
Time: 04:29:21
(UTC+00:00)

Cosmos 2074 Rocket - Pass Details

Date: 29 November 2020
Orbit: 968 x 985 km, 82.9° (Epoch: 19 January)

Event Time Altitude Azimuth Distance (km) Brightness Sun altitude
Rises 03:47:29 0° 181° (S) 3,653 7.1 -22.2°
Reaches altitude 10° 03:50:00 10° 179° (S) 2,710 6.4 -21.9°
Maximum altitude 03:56:09 69° 97° (E) 1,039 4.3 -21.2°
Drops below altitude 10° 04:02:20 10° 16° (NNE) 2,729 6.4 -20.4°
Sets 04:04:52 0° 15° (NNE) 3,681 7.1 -20.1°
